Weather History for K04V - June, 2013

Change the Weather History Date:

Wednesday, June 19, 2013

  Actual Average (KALS) Record (KALS)
Temperature  
Mean Temperature 60 °F 61 °F  
Max Temperature 80 °F 80 °F 91 °F (2006)
Min Temperature 41 °F 41 °F 26 °F (1939)
Degree Days  
Heating Degree Days 4 5  
Month to date heating degree days 132  
Since 1 June heating degree days 132  
Since 1 July heating degree days 8558  
Cooling Degree Days 0 0  
Month to date cooling degree days 0  
Year to date cooling degree days 0  
Since 1 June cooling degree days 0  
Growing Degree Days 10 (Base 50)    
Moisture  
Dew Point 26 °F    
Average Humidity 36    
Maximum Humidity 76    
Minimum Humidity 6    
Precipitation  
Precipitation 0.00 in 0.02 in 0.56 in (1933)
Month to date precipitation 0.28  
Year to date precipitation 2.50  
Snow  
Snow 0.00 in 0.00 in 0.00 in (2002)
Month to date snowfall 0.0  
Since 1 June snowfall 0.0  
Since 1 July snowfall 27.6  
Snow Depth -    
Sea Level Pressure  
Sea Level Pressure 30.10 in    
Wind  
Wind Speed 12 mph (West)    
Max Wind Speed 24 mph    
Max Gust Speed 37 mph    
Visibility 9 miles    
Events      
T = Trace of Precipitation, MM = Missing Value Source: NWS Daily Summary

Daily Weather History Graph

Daily Weather History Graph

Search for Another Location

Airport or City:

Trip Planner

Search our weather history database for the weather conditions in past years. The results will help you decide how hot, cold, wet, or windy it might be!

Date:

Astronomy

Jun. 19, 2013 Rise Set
Actual Time 5:41 AM MDT 8:30 PM MDT
Civil Twilight 5:10 AM MDT 9:02 PM MDT
Nautical Twilight 4:30 AM MDT 9:41 PM MDT
Astronomical Twilight 3:45 AM MDT 10:26 PM MDT
Moon 4:28 PM MDT (6/19) 2:25 AM MDT (6/19)
Length of Visible Light 15h 51m
Length of Day
14h 48m
Waxing Gibbous, 81% of the Moon is Illuminated
Jun 19
Waxing Gibbous
Jun 23
Full
Jun 29
Last Quarter
Jul 8
New
Jul 15
First Quarter

Hourly Weather History & Observations

Time (MDT) Temp. Windchill Dew Point Humidity Pressure Visibility Wind Dir Wind Speed Gust Speed Precip Events Conditions
12:15 AM 48.2 °F - 39.2 °F 71% 30.16 in 10.0 mi NNW 9.2 mph - N/A   Clear
12:35 AM 50.0 °F - 37.4 °F 62% 30.16 in 10.0 mi NNW 10.4 mph - N/A   Clear
12:55 AM 50.0 °F - 37.4 °F 62% 30.16 in 10.0 mi NNW 12.7 mph - N/A   Clear
1:15 AM 48.2 °F - 37.4 °F 66% 30.15 in 10.0 mi NNW 13.8 mph - N/A   Clear
1:35 AM 46.4 °F 40.4 °F 37.4 °F 71% 30.15 in 10.0 mi NNW 13.8 mph - N/A   Clear
1:55 AM 46.4 °F 40.1 °F 35.6 °F 66% 30.14 in 10.0 mi NNW 15.0 mph 20.7 mph N/A   Clear
2:14 AM 46.4 °F 40.7 °F 35.6 °F 66% 30.14 in 10.0 mi NNW 12.7 mph - N/A   Clear
2:35 AM 46.4 °F 41.1 °F 35.6 °F 66% 30.14 in 10.0 mi NNW 11.5 mph - N/A   Clear
2:55 AM 46.4 °F 43.5 °F 35.6 °F 66% 30.14 in 10.0 mi NW 5.8 mph 10.4 mph N/A   Clear
3:15 AM 44.6 °F 39.2 °F 33.8 °F 66% 30.13 in 10.0 mi NW 10.4 mph 23.0 mph N/A   Clear
3:35 AM 44.6 °F 39.2 °F 33.8 °F 66% 30.13 in 10.0 mi NNW 10.4 mph - N/A   Clear
3:55 AM 44.6 °F 38.8 °F 32.0 °F 61% 30.14 in 10.0 mi NNW 11.5 mph - N/A   Clear
4:15 AM 42.8 °F 36.2 °F 33.8 °F 70% 30.14 in 10.0 mi NW 12.7 mph - N/A   Clear
4:35 AM 41.0 °F 33.5 °F 33.8 °F 76% 30.15 in 10.0 mi NNW 13.8 mph - N/A   Clear
4:55 AM 41.0 °F 32.5 °F 32.0 °F 70% 30.15 in 10.0 mi NNW 17.3 mph - N/A   Clear
5:14 AM 41.0 °F 33.5 °F 32.0 °F 70% 30.16 in 10.0 mi NNW 13.8 mph - N/A   Clear
5:35 AM 41.0 °F 34.3 °F 32.0 °F 70% 30.16 in 10.0 mi NNW 11.5 mph - N/A   Clear
5:55 AM 41.0 °F 34.7 °F 30.2 °F 65% 30.16 in 10.0 mi NNW 10.4 mph - N/A   Clear
6:15 AM 42.8 °F 36.6 °F 32.0 °F 66% 30.16 in 10.0 mi NNW 11.5 mph - N/A   Clear
6:35 AM 42.8 °F 36.6 °F 32.0 °F 66% 30.16 in 10.0 mi NNW 11.5 mph 16.1 mph N/A   Clear
6:54 AM 44.6 °F 39.2 °F 32.0 °F 61% 30.16 in 10.0 mi NW 10.4 mph - N/A   Clear
7:15 AM 46.4 °F 41.5 °F 32.0 °F 57% 30.16 in 10.0 mi NW 10.4 mph - N/A   Clear
7:35 AM 48.2 °F - 33.8 °F 58% 30.16 in 10.0 mi NW 10.4 mph - N/A   Clear
7:54 AM 50.0 °F - 33.8 °F 54% 30.16 in 10.0 mi NW 12.7 mph - N/A   Clear
8:15 AM 51.8 °F - 33.8 °F 50% 30.16 in 10.0 mi WNW 11.5 mph - N/A   Clear
8:34 AM 55.4 °F - 33.8 °F 44% 30.16 in 10.0 mi NW 9.2 mph - N/A   Clear
8:55 AM 57.2 °F - 35.6 °F 44% 30.16 in 10.0 mi WNW 3.5 mph - N/A   Clear
9:15 AM 59.0 °F - 35.6 °F 42% 30.16 in 10.0 mi SSE 3.5 mph - N/A   Clear
9:35 AM 60.8 °F - 37.4 °F 42% 30.15 in 10.0 mi SSE 6.9 mph - N/A   Clear
9:55 AM 60.8 °F - 41.0 °F 48% 30.15 in 10.0 mi South 11.5 mph - N/A   Clear
10:15 AM 60.8 °F - 39.2 °F 45% 30.15 in 10.0 mi SSE 8.1 mph - N/A   Clear
10:35 AM 64.4 °F - 41.0 °F 42% 30.14 in 10.0 mi SE 6.9 mph - N/A   Clear
10:55 AM 64.4 °F - 41.0 °F 42% 30.14 in 10.0 mi ESE 8.1 mph - N/A   Clear
11:15 AM 66.2 °F - 37.4 °F 35% 30.14 in 10.0 mi SE 6.9 mph - N/A   Clear
11:35 AM 69.8 °F - 39.2 °F 33% 30.13 in 10.0 mi East 9.2 mph - N/A   Clear
11:55 AM 71.6 °F - 32.0 °F 23% 30.12 in 10.0 mi SSE 11.5 mph - N/A   Clear
12:15 PM 73.4 °F - 26.6 °F 18% 30.10 in 10.0 mi SSE 11.5 mph 16.1 mph N/A   Clear
12:35 PM 75.2 °F - 24.8 °F 15% 30.09 in 10.0 mi South 12.7 mph 18.4 mph N/A   Clear
12:54 PM 77.0 °F - 23.0 °F 13% 30.07 in 10.0 mi South 13.8 mph 24.2 mph N/A   Clear
1:15 PM 77.0 °F - 23.0 °F 13% 30.05 in 10.0 mi SSE 20.7 mph 25.3 mph N/A   Clear
1:35 PM 80.6 °F - 17.6 °F 10% 30.05 in 10.0 mi West 16.1 mph 27.6 mph N/A   Clear
1:55 PM 80.6 °F - 15.8 °F 9% 30.05 in 10.0 mi WSW 19.6 mph - N/A   Clear
2:15 PM 80.6 °F - 12.2 °F 8% 30.04 in 10.0 mi WSW 20.7 mph 32.2 mph N/A   Clear
2:35 PM 80.6 °F - 12.2 °F 8% 30.05 in 10.0 mi SW 18.4 mph 27.6 mph N/A   Clear
2:55 PM 80.6 °F - 10.4 °F 7% 30.04 in 10.0 mi WSW 23.0 mph 36.8 mph N/A   Clear
3:15 PM 80.6 °F - 8.6 °F 6% 30.05 in 10.0 mi West 15.0 mph 32.2 mph N/A   Clear
3:35 PM 80.6 °F - 12.2 °F 8% 30.04 in 7.0 mi WSW 23.0 mph 26.5 mph N/A   Clear
3:55 PM 80.6 °F - 10.4 °F 7% 30.03 in 10.0 mi SW 24.2 mph 29.9 mph N/A   Clear
4:15 PM 80.6 °F - 12.2 °F 8% 30.03 in 5.0 mi SW 20.7 mph 27.6 mph N/A   Haze
4:35 PM 80.6 °F - 14.0 °F 8% 30.03 in 5.0 mi WSW 16.1 mph 21.9 mph N/A   Haze
4:55 PM 78.8 °F - 12.2 °F 8% 30.03 in 4.0 mi SW 20.7 mph 25.3 mph N/A   Haze
5:15 PM 77.0 °F - 10.4 °F 8% 30.03 in 3.0 mi SW 20.7 mph 26.5 mph N/A   Haze
5:35 PM 77.0 °F - 10.4 °F 8% 30.03 in 4.0 mi SSW 21.9 mph 26.5 mph N/A   Haze
5:55 PM 77.0 °F - 12.2 °F 9% 30.03 in 3.0 mi SW 12.7 mph - N/A   Haze
6:15 PM 77.0 °F - 10.4 °F 8% 30.03 in 4.0 mi SW 18.4 mph 25.3 mph N/A   Haze
6:34 PM 77.0 °F - 10.4 °F 8% 30.03 in 5.0 mi WSW 15.0 mph 20.7 mph N/A   Haze
6:55 PM 75.2 °F - 15.8 °F 11% 30.03 in 7.0 mi West 15.0 mph - N/A   Mostly Cloudy
7:15 PM 75.2 °F - 17.6 °F 11% 30.04 in 7.0 mi WSW 10.4 mph - N/A   Scattered Clouds
7:35 PM 73.4 °F - 15.8 °F 11% 30.04 in 7.0 mi WSW 9.2 mph 17.3 mph N/A   Mostly Cloudy
7:55 PM 73.4 °F - 15.8 °F 11% 30.05 in 7.0 mi WSW 11.5 mph - N/A   Scattered Clouds
8:15 PM 68.0 °F - 21.2 °F 17% 30.05 in 7.0 mi WSW 8.1 mph - N/A   Clear
8:35 PM 66.2 °F - 23.0 °F 19% 30.05 in 7.0 mi WSW 8.1 mph - N/A   Clear
8:55 PM 62.6 °F - 21.2 °F 20% 30.06 in 10.0 mi West 9.2 mph - N/A   Clear
9:14 PM 62.6 °F - 23.0 °F 22% 30.06 in 10.0 mi West 4.6 mph - N/A   Clear
9:34 PM 62.6 °F - 21.2 °F 20% 30.07 in 10.0 mi WSW 9.2 mph - N/A   Scattered Clouds
9:55 PM 60.8 °F - 21.2 °F 22% 30.08 in 10.0 mi Calm Calm - N/A   Clear
10:15 PM 59.0 °F - 23.0 °F 25% 30.09 in 10.0 mi Calm Calm - N/A   Clear
10:35 PM 55.4 °F - 24.8 °F 31% 30.09 in 10.0 mi NE 3.5 mph - N/A   Clear
10:55 PM 55.4 °F - 24.8 °F 31% 30.09 in 10.0 mi NNE 8.1 mph - N/A   Clear
11:14 PM 55.4 °F - 21.2 °F 26% 30.09 in 10.0 mi NNE 6.9 mph - N/A   Clear
11:35 PM 53.6 °F - 19.4 °F 26% 30.09 in 10.0 mi NNW 9.2 mph - N/A   Clear
11:55 PM 51.8 °F - 21.2 °F 30% 30.09 in 10.0 mi North 9.2 mph - N/A   Clear